{"data":{"norad_id":45223,"epoch":"2026-09-20T04:08:49.538976Z","epoch_age_seconds":42816,"freshness":"FRESH","line1":"1 45223U 20012AX  26263.17279559  .00102421  00000+0  43659-3 0  9994","line2":"2 45223  53.0346 110.2467 0003552 142.1926 217.9346 15.84446741366168","mean_motion":15.84446741,"eccentricity":0.0003552,"inclination_deg":53.0346,"raan_deg":110.2467,"arg_perigee_deg":142.1926,"mean_anomaly_deg":217.9346,"bstar":0.00043659,"rev_number":36616,"period_min":90.883458732804,"perigee_km":315.50460643524,"apogee_km":320.26145906651,"semimajor_km":6696.0200327509,"source":"CELESTRAK","updated_at":"2026-09-20T09:00:38.228170Z"}}